This is the latest recevied weather packets stored in our database for station/object KM5R. If no packets are shown the sender has not sent any weather packets the latest 1 day(s).
| Time | Temp. | Humidity | Pressure | Rain* | Wind** | Luminosity | Snow |
|---|---|---|---|---|---|---|---|
| 1778037184 | 25° C | 77% | 1008.5 hPa | 0 mm | 1.79 m/s, 125° | 0 W/m² | - |
| 1778036882 | 25° C | 77% | 1008.5 hPa | 0 mm | 2.24 m/s, 136° | 0 W/m² | - |
| 1778036580 | 25° C | 77% | 1008.3 hPa | 0 mm | 1.34 m/s, 116° | 0 W/m² | - |
| 1778036277 | 25° C | 77% | 1008.2 hPa | 0 mm | 1.79 m/s, 90° | 0 W/m² | - |
| 1778035973 | 25° C | 77% | 1008.3 hPa | 0 mm | 2.24 m/s, 106° | 0 W/m² | - |
| 1778035670 | 25° C | 77% | 1008.3 hPa | 0 mm | 2.68 m/s, 126° | 0 W/m² | - |
| 1778035366 | 25° C | 76% | 1008.3 hPa | 0 mm | 1.34 m/s, 131° | 0 W/m² | - |
| 1778035062 | 25° C | 76% | 1008.2 hPa | 0 mm | 1.34 m/s, 151° | 0 W/m² | - |
| 1778034760 | 25.56° C | 75% | 1008.1 hPa | 0 mm | 0.89 m/s, 107° | 0 W/m² | - |
| 1778034456 | 25.56° C | 75% | 1008.1 hPa | 0 mm | 1.79 m/s, 127° | 0 W/m² | - |
| 1778034155 | 25.56° C | 75% | 1007.8 hPa | 0 mm | 0.89 m/s, 77° | 0 W/m² | - |
| 1778033852 | 25.56° C | 75% | 1007.6 hPa | 0 mm | 1.79 m/s, 93° | 0 W/m² | - |
| 1778033549 | 25.56° C | 75% | 1007.6 hPa | 0 mm | 1.34 m/s, 142° | 0 W/m² | - |
| 1778033246 | 25.56° C | 75% | 1007.7 hPa | 0 mm | 0.89 m/s, 121° | 0 W/m² | - |
| 1778032944 | 25.56° C | 74% | 1007.7 hPa | 0 mm | 0.89 m/s, 127° | 0 W/m² | - |
| 1778032641 | 25.56° C | 74% | 1007.5 hPa | 0 mm | 0.89 m/s, 110° | 0 W/m² | - |
| 1778032339 | 26.11° C | 74% | 1007.6 hPa | 0 mm | 1.34 m/s, 119° | 0 W/m² | - |
| 1778032035 | 26.11° C | 73% | 1007.6 hPa | 0 mm | 1.34 m/s, 86° | 0 W/m² | - |
| 1778031731 | 26.11° C | 73% | 1007.4 hPa | 0 mm | 2.24 m/s, 115° | 0 W/m² | - |
| 1778031429 | 26.11° C | 73% | 1007.2 hPa | 0 mm | 0.89 m/s, 119° | 0 W/m² | - |
| 1778031126 | 26.11° C | 72% | 1007.1 hPa | 0 mm | 0.89 m/s, 127° | 0 W/m² | - |
| 1778030822 | 26.67° C | 71% | 1007.2 hPa | 0 mm | 1.34 m/s, 134° | 0 W/m² | - |
| 1778030519 | 26.67° C | 71% | 1007.3 hPa | 0 mm | 0 m/s | 1 W/m² | - |
| 1778030217 | 26.67° C | 70% | 1007.1 hPa | 0 mm | 1.34 m/s, 103° | 2 W/m² | - |
| 1778029912 | 26.67° C | 70% | 1006.9 hPa | 0 mm | 1.34 m/s, 126° | 3 W/m² | - |
* Rain latest hour (hover to see other rain measurements)
** Current wind speed in m/s (hover to see current wind gust speed)